Year,Month,Day,Hour,Minute,Value (Times are PST for temperature in C)
2008,04,02,00,00,3.40
2008,04,02,00,01,3.40
2008,04,02,00,02,3.40
2008,04,02,00,03,3.40
2008,04,02,00,04,3.40
2008,04,02,00,05,3.40
2008,04,02,00,06,3.40
2008,04,02,00,07,3.40
2008,04,02,00,08,3.40
2008,04,02,00,09,3.40
2008,04,02,00,10,3.30
2008,04,02,00,11,3.40
2008,04,02,00,12,3.30
2008,04,02,00,13,3.30
2008,04,02,00,14,3.30
2008,04,02,00,15,3.30
2008,04,02,00,16,3.30
2008,04,02,00,17,3.30
2008,04,02,00,18,3.30
2008,04,02,00,19,3.30
2008,04,02,00,20,3.30
2008,04,02,00,21,3.30
2008,04,02,00,22,3.30
2008,04,02,00,23,3.30
2008,04,02,00,24,3.30
2008,04,02,00,25,3.30
2008,04,02,00,26,3.30
2008,04,02,00,27,3.30
2008,04,02,00,28,3.30
2008,04,02,00,29,3.30
2008,04,02,00,30,3.30
2008,04,02,00,31,3.30
2008,04,02,00,32,3.30
2008,04,02,00,33,3.30
2008,04,02,00,34,3.30
2008,04,02,00,35,3.30
2008,04,02,00,36,3.30
2008,04,02,00,37,3.30
2008,04,02,00,38,3.30
2008,04,02,00,39,3.30
2008,04,02,00,40,3.30
2008,04,02,00,41,3.30
2008,04,02,00,42,3.30
2008,04,02,00,43,3.30
2008,04,02,00,44,3.30
2008,04,02,00,45,3.30
2008,04,02,00,46,3.30
2008,04,02,00,47,3.30
2008,04,02,00,48,3.30
2008,04,02,00,49,3.20
2008,04,02,00,50,3.20
2008,04,02,00,51,3.20
2008,04,02,00,52,3.20
2008,04,02,00,53,3.20
2008,04,02,00,54,3.20
2008,04,02,00,55,3.20
2008,04,02,00,56,3.20
2008,04,02,00,57,3.20
2008,04,02,00,58,3.20
2008,04,02,00,59,3.20
2008,04,02,01,00,3.20
2008,04,02,01,01,3.20
2008,04,02,01,02,3.20
2008,04,02,01,03,3.20
2008,04,02,01,04,3.30
2008,04,02,01,05,3.20
2008,04,02,01,06,3.30
2008,04,02,01,07,3.30
2008,04,02,01,08,3.30
2008,04,02,01,09,3.30
2008,04,02,01,10,3.30
2008,04,02,01,11,3.30
2008,04,02,01,12,3.30
2008,04,02,01,13,3.30
2008,04,02,01,14,3.30
2008,04,02,01,15,3.30
2008,04,02,01,16,3.30
2008,04,02,17,02,9.20
2008,04,02,17,03,9.30
2008,04,02,17,04,9.40
2008,04,02,17,05,9.50
2008,04,02,17,06,9.50
2008,04,02,17,07,9.40
2008,04,02,17,08,9.40
2008,04,02,17,09,9.30
2008,04,02,17,10,9.20
2008,04,02,17,11,9.10
2008,04,02,17,12,9.00
2008,04,02,17,13,8.90
2008,04,02,17,14,8.90
2008,04,02,17,15,8.90
2008,04,02,17,16,9.00
2008,04,02,17,17,9.00
2008,04,02,17,18,9.00
2008,04,02,17,19,9.00
2008,04,02,17,20,8.90
2008,04,02,17,21,8.90
2008,04,02,17,22,8.90
2008,04,02,17,23,9.00
2008,04,02,17,24,9.10
2008,04,02,17,25,9.20
2008,04,02,17,26,9.30
2008,04,02,17,27,9.30
2008,04,02,17,28,9.30
2008,04,02,17,29,9.20
2008,04,02,17,30,9.10
2008,04,02,17,31,9.00
2008,04,02,17,32,9.00
2008,04,02,17,33,9.00
2008,04,02,17,34,9.00
2008,04,02,17,35,9.00
2008,04,02,17,36,8.90
2008,04,02,17,37,8.90
2008,04,02,17,38,8.90
2008,04,02,17,39,9.00
2008,04,02,17,40,8.90
2008,04,02,17,41,8.90
2008,04,02,17,42,8.90
2008,04,02,17,43,8.90
2008,04,02,17,44,8.90
2008,04,02,17,45,8.90
2008,04,02,17,46,9.00
2008,04,02,17,47,9.00
2008,04,02,17,48,9.00
2008,04,02,17,49,9.10
2008,04,02,17,50,9.10
2008,04,02,17,51,9.10
2008,04,02,17,52,9.10
2008,04,02,17,53,9.10
2008,04,02,17,54,9.10
2008,04,02,17,55,9.10
2008,04,02,17,56,9.10
2008,04,02,17,57,9.10
2008,04,02,17,58,9.10
2008,04,02,17,59,9.10
2008,04,02,18,00,9.00
2008,04,02,18,01,8.90
2008,04,02,18,02,8.80
2008,04,02,18,03,8.70
2008,04,02,18,04,8.60
2008,04,02,18,05,8.60
2008,04,02,18,06,8.50
2008,04,02,18,07,8.50
2008,04,02,18,08,8.50
2008,04,02,18,09,8.60
2008,04,02,18,10,8.60
2008,04,02,18,11,8.60
2008,04,02,18,12,8.60
2008,04,02,18,13,8.60
2008,04,02,18,14,8.60
2008,04,02,18,15,8.60
2008,04,02,18,16,8.60
2008,04,02,18,17,8.60
2008,04,02,18,18,8.60
2008,04,02,18,19,8.60
2008,04,02,18,20,8.60
2008,04,02,18,21,8.60
2008,04,02,18,22,8.60
2008,04,02,18,23,8.60
2008,04,02,18,24,8.60
2008,04,02,18,25,8.60
2008,04,02,18,26,8.60
2008,04,02,18,27,8.60
2008,04,02,18,28,8.70
2008,04,02,18,29,8.70
2008,04,02,18,30,8.60
2008,04,02,18,31,8.60
2008,04,02,18,32,8.60
2008,04,02,18,33,8.60
2008,04,02,18,34,8.60
2008,04,02,18,35,8.60
2008,04,02,18,36,8.60
2008,04,02,18,37,8.50
2008,04,02,18,38,8.50
2008,04,02,18,39,8.40
2008,04,02,18,40,8.40
2008,04,02,18,41,8.40
2008,04,02,18,42,8.40
2008,04,02,18,43,8.30
2008,04,02,18,44,8.30
2008,04,02,18,45,8.30
2008,04,02,18,46,8.30
2008,04,02,18,47,8.30
2008,04,02,18,48,8.30
2008,04,02,18,49,8.40
2008,04,02,18,50,8.40
2008,04,02,18,51,8.40
2008,04,02,18,52,8.40
2008,04,02,18,53,8.40
2008,04,02,18,54,8.40
2008,04,02,18,55,8.40
2008,04,02,18,56,8.40
2008,04,02,18,57,8.30
2008,04,02,18,58,8.30
2008,04,02,18,59,8.30
2008,04,02,19,00,8.20
2008,04,02,19,01,8.20
2008,04,02,19,02,8.20
2008,04,02,19,03,8.20
2008,04,02,19,04,8.20
2008,04,02,19,05,8.20
2008,04,02,19,06,8.10
2008,04,02,19,07,8.10
2008,04,02,19,08,8.10
2008,04,02,19,09,8.10
2008,04,02,19,10,8.10
2008,04,02,19,11,8.00
2008,04,02,19,12,8.00
2008,04,02,19,13,8.00
2008,04,02,19,14,7.90
2008,04,02,19,15,7.90
2008,04,02,19,16,7.90
2008,04,02,19,17,7.80
2008,04,02,19,18,7.80
2008,04,02,19,19,7.80
2008,04,02,19,20,7.80
2008,04,02,19,21,7.70
2008,04,02,19,22,7.70
2008,04,02,19,23,7.70
2008,04,02,19,24,7.70
2008,04,02,19,25,7.70
2008,04,02,19,26,7.70
2008,04,02,19,27,7.60
2008,04,02,19,28,7.60
2008,04,02,19,29,7.60
2008,04,02,19,30,7.60
2008,04,02,19,31,7.50
2008,04,02,19,32,7.50
2008,04,02,19,33,7.40
2008,04,02,19,34,7.40
2008,04,02,19,35,7.30
2008,04,02,19,36,7.30
2008,04,02,19,37,7.30
2008,04,02,19,38,7.20
2008,04,02,19,39,7.20
2008,04,02,19,40,7.20
2008,04,02,19,41,7.10
2008,04,02,19,42,7.10
2008,04,02,19,43,7.00
2008,04,02,19,44,7.00
2008,04,02,19,45,6.90
2008,04,02,19,46,6.90
2008,04,02,19,47,6.80
2008,04,02,19,48,6.80
2008,04,02,19,49,6.70
2008,04,02,19,50,6.70
2008,04,02,19,51,6.60
2008,04,02,19,52,6.60
2008,04,02,19,53,6.50
2008,04,02,19,54,6.50
2008,04,02,19,55,6.40
2008,04,02,19,56,6.30
2008,04,02,19,57,6.30
2008,04,02,19,58,6.20
2008,04,02,19,59,6.20
2008,04,02,20,00,6.10
2008,04,02,20,01,6.10
2008,04,02,20,02,6.10
2008,04,02,20,03,6.10
2008,04,02,20,04,6.00
2008,04,02,20,05,5.90
2008,04,02,20,06,5.90
2008,04,02,20,07,5.90
2008,04,02,20,08,5.80
2008,04,02,20,09,5.80
2008,04,02,20,10,5.70
2008,04,02,20,11,5.70
2008,04,02,20,12,5.70
2008,04,02,20,13,5.60
2008,04,02,20,14,5.60
2008,04,02,20,15,5.50
2008,04,02,20,16,5.50
2008,04,02,20,17,5.40
2008,04,02,20,18,5.40
2008,04,02,20,19,5.30
2008,04,02,20,20,5.30
2008,04,02,20,21,5.20
2008,04,02,20,22,5.20
2008,04,02,20,23,5.20
2008,04,02,20,24,5.10
2008,04,02,20,25,5.10
2008,04,02,20,26,5.10
2008,04,02,20,27,5.00
2008,04,02,20,28,5.00
2008,04,02,20,29,4.90
2008,04,02,20,30,4.90
2008,04,02,20,31,4.90
2008,04,02,20,32,4.80
2008,04,02,20,33,4.80
2008,04,02,20,34,4.80
2008,04,02,20,35,4.70
2008,04,02,20,36,4.70
2008,04,02,20,37,4.70
2008,04,02,20,38,4.70
2008,04,02,20,39,4.60
2008,04,02,20,40,4.60
2008,04,02,20,41,4.60
2008,04,02,20,42,4.60
2008,04,02,20,43,4.50
2008,04,02,20,44,4.50
2008,04,02,20,45,4.40
2008,04,02,20,46,4.40
2008,04,02,20,47,4.40
2008,04,02,20,48,4.40
2008,04,02,20,49,4.30
2008,04,02,20,50,4.30
2008,04,02,20,51,4.30
2008,04,02,20,52,4.20
2008,04,02,20,53,4.20
2008,04,02,20,54,4.20
2008,04,02,20,55,4.10
2008,04,02,20,56,4.10
2008,04,02,20,57,4.10
2008,04,02,20,58,4.00
2008,04,02,20,59,4.00
2008,04,02,21,00,3.90
2008,04,02,21,01,3.90
2008,04,02,21,02,3.90
2008,04,02,21,03,3.90
2008,04,02,21,04,3.80
2008,04,02,21,05,3.80
2008,04,02,21,06,3.80
2008,04,02,21,07,3.70
2008,04,02,21,08,3.70
2008,04,02,21,09,3.70
2008,04,02,21,10,3.70
2008,04,02,21,11,3.60
2008,04,02,21,12,3.60
2008,04,02,21,13,3.60
2008,04,02,21,14,3.60
2008,04,02,21,15,3.50
2008,04,02,21,16,3.50
2008,04,02,21,17,3.50
2008,04,02,21,18,3.40
2008,04,02,21,19,3.40
2008,04,02,21,20,3.40
2008,04,02,21,21,3.40
2008,04,02,21,22,3.30
2008,04,02,21,23,3.30
2008,04,02,21,24,3.30
2008,04,02,21,25,3.30
2008,04,02,21,26,3.20
2008,04,02,21,27,3.20
2008,04,02,21,28,3.20
2008,04,02,21,29,3.20
2008,04,02,21,30,3.10
2008,04,02,21,31,3.10
2008,04,02,21,32,3.10
2008,04,02,21,33,3.10
2008,04,02,21,34,3.00
2008,04,02,21,35,3.00
2008,04,02,21,36,3.00
2008,04,02,21,37,2.90
2008,04,02,21,38,2.90
2008,04,02,21,39,2.90
2008,04,02,21,40,2.90
2008,04,02,21,41,2.80
2008,04,02,21,42,2.80
2008,04,02,21,43,2.80
2008,04,02,21,44,2.80
2008,04,02,21,45,2.70
2008,04,02,21,46,2.70
2008,04,02,21,47,2.70
2008,04,02,21,48,2.60
2008,04,02,21,49,2.60
2008,04,02,21,50,2.60
2008,04,02,21,51,2.60
2008,04,02,21,52,2.50
2008,04,02,21,53,2.50
2008,04,02,21,54,2.50
2008,04,02,21,55,2.40
2008,04,02,21,56,2.40
2008,04,02,21,57,2.40
2008,04,02,21,58,2.40
2008,04,02,21,59,2.40
2008,04,02,22,00,2.30
2008,04,02,22,01,2.30
2008,04,02,22,02,2.30
2008,04,02,22,03,2.30
2008,04,02,22,04,2.30
2008,04,02,22,05,2.30
2008,04,02,22,06,2.20
2008,04,02,22,07,2.20
2008,04,02,22,08,2.20
2008,04,02,22,09,2.20
2008,04,02,22,10,2.20
2008,04,02,22,11,2.20
2008,04,02,22,12,2.20
2008,04,02,22,13,2.20
2008,04,02,22,14,2.10
2008,04,02,22,15,2.10
2008,04,02,22,16,2.10
2008,04,02,22,17,2.10
2008,04,02,22,18,2.10
2008,04,02,22,19,2.00
2008,04,02,22,20,2.00
2008,04,02,22,21,2.00
2008,04,02,22,22,2.00
2008,04,02,22,23,2.00
2008,04,02,22,24,1.90
2008,04,02,22,25,1.90
2008,04,02,22,26,1.90
2008,04,02,22,27,1.90
2008,04,02,22,28,1.90
2008,04,02,22,29,1.80
2008,04,02,22,30,1.80
2008,04,02,22,31,1.80
2008,04,02,22,32,1.80
2008,04,02,22,33,1.80
2008,04,02,22,34,1.80
2008,04,02,22,35,1.80
2008,04,02,22,36,1.70
2008,04,02,22,37,1.70
2008,04,02,22,38,1.70
2008,04,02,22,39,1.70
2008,04,02,22,40,1.70
2008,04,02,22,41,1.70
2008,04,02,22,42,1.60
2008,04,02,22,43,1.60
2008,04,02,22,44,1.60
2008,04,02,22,45,1.60
2008,04,02,22,46,1.60
2008,04,02,22,47,1.50
2008,04,02,22,48,1.50
2008,04,02,22,49,1.50
2008,04,02,22,50,1.40
2008,04,02,22,51,1.40
2008,04,02,22,52,1.40
2008,04,02,22,53,1.30
2008,04,02,22,54,1.30
2008,04,02,22,55,1.30
2008,04,02,22,56,1.30
2008,04,02,22,57,1.30
2008,04,02,22,58,1.30
2008,04,02,22,59,1.30
2008,04,02,23,00,1.30
2008,04,02,23,01,1.30
2008,04,02,23,02,1.30
2008,04,02,23,03,1.30
2008,04,02,23,04,1.30
2008,04,02,23,05,1.30
2008,04,02,23,06,1.20
2008,04,02,23,07,1.20
2008,04,02,23,08,1.20
2008,04,02,23,09,1.20
2008,04,02,23,10,1.10
2008,04,02,23,11,1.10
2008,04,02,23,12,1.10
2008,04,02,23,13,1.10
2008,04,02,23,14,1.00
2008,04,02,23,15,1.00
2008,04,02,23,16,1.00
2008,04,02,23,17,0.90
2008,04,02,23,18,0.90
2008,04,02,23,19,0.90
2008,04,02,23,20,0.90
2008,04,02,23,21,0.90
2008,04,02,23,22,0.90
2008,04,02,23,23,0.80
2008,04,02,23,24,0.80
2008,04,02,23,25,0.80
2008,04,02,23,26,0.80
2008,04,02,23,27,0.80
2008,04,02,23,28,0.80
2008,04,02,23,29,0.80
2008,04,02,23,30,0.80
2008,04,02,23,31,0.80
2008,04,02,23,32,0.80
2008,04,02,23,33,0.80
2008,04,02,23,34,0.80
2008,04,02,23,35,0.80
2008,04,02,23,36,0.70
2008,04,02,23,37,0.70
2008,04,02,23,38,0.70
2008,04,02,23,39,0.70
2008,04,02,23,40,0.70
2008,04,02,23,41,0.70
2008,04,02,23,42,0.70
2008,04,02,23,43,0.70
2008,04,02,23,44,0.70
2008,04,02,23,45,0.60
2008,04,02,23,46,0.60
2008,04,02,23,47,0.60
2008,04,02,23,48,0.60
2008,04,02,23,49,0.60
2008,04,02,23,50,0.60
2008,04,02,23,51,0.60
2008,04,02,23,52,0.60
2008,04,02,23,53,0.50
2008,04,02,23,54,0.50
2008,04,02,23,55,0.50
2008,04,02,23,56,0.50
2008,04,02,23,57,0.40
2008,04,02,23,58,0.40
2008,04,02,23,59,0.40
